This demonstration page uses our WeatherBlox Daily Observations layout. Learn more.

Left ArrowRight Arrow

Hourly Observations for June 27, 2020

Temp ( °F °C ) Dew Point ( °F °C ) Humidity (%) Winds ( mph kmh ) Pressure ( in mb ) Visibility ( mi km ) Precip ( " mm )
12:56 am 00:56 Mostly Clear 75 23.7 71 21.6 88 88 SE 8 13 29.83 1010 10 16 0.00 0.00
1:56 am 01:56 Clear 74 23.1 67 19.6 81 81 Calm 29.83 1010 10 16 0.00 0.00
2:56 am 02:56 Clear 71 21.4 67 19.3 88 88 N 5 7 29.80 1009 10 16 0.00 0.00
3:56 am 03:56 Mostly Cloudy 72 22 67 19.7 87 87 S 9 15 29.84 1011 10 16 0.00 0.00
4:56 am 04:56 Cloudy 71 21.9 68 19.8 88 88 SSW 9 15 29.85 1011 10 16 0.00 0.00
5:56 am 05:56 Partly Cloudy 69 20.4 66 19 92 92 Calm 29.84 1010 10 16 0.00 0.00
6:56 am 06:56 Cloudy 70 21.3 67 19.4 89 89 S 7 11 29.85 1011 10 16 0.00 0.00
7:56 am 07:56 Mostly Cloudy 72 22 67 19.7 87 87 Calm 29.82 1010 10 16 0.00 0.00
8:56 am 08:56 Sunny 74 23.3 67 19.6 80 80 WNW 3 6 29.80 1009 10 16 0.00 0.00
9:56 am 09:56 Sunny 77 24.8 66 18.9 70 70 WNW 6 9 29.80 1009 10 16 0.00 0.00
10:56 am 10:56 Partly Cloudy 78 25.7 67 19.6 69 69 SSW 10 17 29.84 1010 10 16 0.00 0.00
11:56 am 11:56 Partly Cloudy 79 26 69 20.8 73 73 S 12 19 29.82 1010 10 16 0.00 0.00
12:56 pm 12:56 Sunny 83 28.3 69 20.3 62 62 SW 12 19 29.80 1009 10 16 0.00 0.00
1:56 pm 13:56 Sunny 85 29.3 67 19.3 55 55 S 10 17 29.78 1008 10 16 0.00 0.00
2:56 pm 14:56 Mostly Sunny 85 29.7 67 19.7 55 55 SSW 8 13 29.78 1008 10 16 0.00 0.00
3:56 pm 15:56 Partly Cloudy 86 30.1 68 20 55 55 SW 7 11 29.78 1008 10 16 0.00 0.00
4:56 pm 16:56 Sunny 86 30 68 20.2 56 56 S 5 7 29.75 1008 10 16 0.00 0.00
5:56 pm 17:56 Sunny 86 30 68 20.2 56 56 SSW 9 15 29.75 1007 10 16 0.00 0.00
6:56 pm 18:56 Sunny 85 29.6 69 20.4 58 58 S 6 9 29.73 1007 10 16 0.00 0.00
7:56 pm 19:56 Sunny 84 28.7 68 20.1 60 60 S 8 13 29.72 1007 10 16 0.00 0.00
8:56 pm 20:56 Sunny 80 26.8 69 20.8 70 70 SSE 9 15 29.73 1007 10 16 0.00 0.00
9:56 pm 21:56 Clear 77 25.2 70 21.1 78 78 SSE 7 11 29.74 1007 10 16 0.00 0.00
10:56 pm 22:56 Clear 74 23.4 69 20.7 85 85 SSE 6 9 29.75 1007 10 16 0.00 0.00
11:56 pm 23:56 Clear 74 23.1 69 20.4 85 85 SSE 6 9 29.75 1007 10 16 0.00 0.00

Powered by AerisWeather